STARLINK-35372, 66476

Orbit data source: Space-Track

STARLINK-35372, 66476 is a payload satellite owned by SpaceX/Seattle (US) in LEO that was launched on Sat, 15 Nov 2025 UTC via an FALCON 9 launch vehicle from the Air Force Eastern Test Range (AFETR). Payload-class satellites include a variety of spacecraft equipped with specific instruments for various scientific and technological missions. These include communications satellites like Starlink; space stations such as the ISS; scientific satellites like the Hubble; Earth observation satellites from companies like Planet Labs, Umbra, and HawkEye 360; GPS; miniature CubeSats for education and research; and military/defense satellites.

Loading next visibility...
Identifier
66476, 2025-262W
Orbit
LEO
Country
Flag of USUS
Related business
Manufacturer
SpaceX/Seattle
Mission
Operational Commercial Communications
Bus & Motor
STARLINK V2MO, Unknown motor
Mass
575 kg wet, ~530 kg dry
Launch date (UTC)
2025-11-15 (7 months ago)
Launch vehicle
FALCON 9
Launch site
Air Force Eastern Test Range (AFETR)
Object type
Payload
Rocket body
Debris
Shape & HBR
Box + 2 Pan, 17.7 m
Radar Cross Section
36.964 m², Large (>1 m²)

Expand to show TLE details & history
Last TLE update: 17 hours ago

TLE from 17 hours ago
0 STARLINK-35372
1 66476U 25262W   26171.13708780  .00022972  00000-0  84037-3 0  9994
2 66476  42.9995  77.6665 0001463 266.9079  93.1605 15.27632034 34463
Epoch: 2026-06-20T03:17Z
TLE epoch observation values (Epoch: 2026-06-20T03:17:24.385Z)
Latitude
-0.00006°
Longitude
119.95881°
Altitude
482.724 km
Speed
7.626 km/s
True Right ascension
05h 10m 39s
True Declination
0° 00' 00"
Sunlit
Object was in daylight at epoch
Visualization orbit readout
Latitude
Unknown
Longitude
Unknown
Altitude
Unknown
Speed
Unknown
Apparent Right ascension
Unknown
Apparent Declination
Unknown
Sunlit
N/A
Visualization observer readout
Local Sidereal Time
07:16:20
Azimuth
Unknown
Elevation
Unknown
Doppler factor
Unknown
Orbital elements
Apogee altitude
485.843 km
Perigee altitude
483.835 km
Semi-major axis
6,862.976 km
Eccentricity
0.00015
Inclination
42.9995°
RAAN
77.6665°
Arg. of periapsis
266.9079°
True anomaly
93.17724°
Mean anomaly
93.1605°
Eccentric anomaly
93.16887°
Mean motion
3.81746 °/min
Orbital period
94.3 mins
BSTAR
0.00084037
Loading maneuver chart data...
Computing Atmospheric mass density...
Loading historical data...
Loading historical data...
Loading historical data...
Loading historical data...
Loading historical data...
Loading historical data...
Loading historical data...

Documentation

Showing up to 5 results
|